Tiempo cada hora Czworaki

Hoy, 18 Junio, Viernes

Tiempo Temperatura Precipitaciones Viento Presión Humedad
00:00 +18°C° 0 mm 3 mps 754 mmHg 83%
01:00 +17°C° 0 mm 2 mps 754 mmHg 87%
02:00 +17°C° 0 mm 2 mps 754 mmHg 90%
03:00 +17°C° 0 mm 2 mps 754 mmHg 90%
04:00 +17°C° 0 mm 2 mps 754 mmHg 89%
05:00 +17°C° 0 mm 2 mps 754 mmHg 89%
06:00 +18°C° 0 mm 3 mps 754 mmHg 83%
07:00 +20°C° 0 mm 3 mps 754 mmHg 77%
08:00 +22°C° 0 mm 4 mps 754 mmHg 71%
09:00 +23°C° 0 mm 4 mps 754 mmHg 66%
10:00 +26°C° 0 mm 4 mps 754 mmHg 61%
11:00 +27°C° 0 mm 4 mps 754 mmHg 56%
12:00 +27°C° 0 mm 4 mps 753 mmHg 54%
13:00 +28°C° 0 mm 4 mps 753 mmHg 51%
14:00 +28°C° 0 mm 4 mps 753 mmHg 48%
15:00 +28°C° 0 mm 4 mps 753 mmHg 50%
16:00 +28°C° 0 mm 4 mps 753 mmHg 52%
17:00 +28°C° 0 mm 4 mps 752 mmHg 55%
18:00 +26°C° 0 mm 3 mps 752 mmHg 62%
19:00 +24°C° 0 mm 3 mps 752 mmHg 69%
20:00 +22°C° 0 mm 3 mps 753 mmHg 76%
21:00 +21°C° 0 mm 3 mps 753 mmHg 78%
22:00 +20°C° 0 mm 3 mps 753 mmHg 81%
23:00 +19°C° 0 mm 3 mps 753 mmHg 83%

Mañana, 19 Junio, Sábado

Tiempo Temperatura Precipitaciones Viento Presión Humedad
00:00 +18°C° 0 mm 2 mps 753 mmHg 86%
01:00 +18°C° 0 mm 2 mps 753 mmHg 89%
02:00 +18°C° 0 mm 2 mps 752 mmHg 92%
03:00 +18°C° 0 mm 2 mps 753 mmHg 93%
04:00 +18°C° 0 mm 2 mps 753 mmHg 94%
05:00 +18°C° 0 mm 3 mps 753 mmHg 94%
06:00 +19°C° 0 mm 3 mps 753 mmHg 89%
07:00 +21°C° 0 mm 4 mps 753 mmHg 84%
08:00 +23°C° 0 mm 4 mps 752 mmHg 78%
09:00 +25°C° 0 mm 4 mps 752 mmHg 72%
10:00 +26°C° 0 mm 4 mps 752 mmHg 66%
11:00 +28°C° 0 mm 4 mps 752 mmHg 60%
12:00 +28°C° 0 mm 4 mps 752 mmHg 58%
13:00 +29°C° 0 mm 4 mps 751 mmHg 56%
14:00 +29°C° 0 mm 4 mps 751 mmHg 53%
15:00 +29°C° 0.1 mm 4 mps 751 mmHg 57%
16:00 +28°C° 0.1 mm 3 mps 751 mmHg 60%
17:00 +28°C° 0.1 mm 3 mps 751 mmHg 63%
18:00 +26°C° 0.3 mm 3 mps 751 mmHg 70%
19:00 +25°C° 0.3 mm 3 mps 751 mmHg 77%
20:00 +22°C° 0.3 mm 3 mps 751 mmHg 84%
21:00 +21°C° 0 mm 3 mps 751 mmHg 86%
22:00 +20°C° 0 mm 3 mps 751 mmHg 88%
23:00 +20°C° 0 mm 3 mps 751 mmHg 91%

Pasado mañana, 20 Junio, Domingo

Tiempo Temperatura Precipitaciones Viento Presión Humedad
00:00 +19°C° 0 mm 3 mps 751 mmHg 91%
01:00 +19°C° 0 mm 3 mps 751 mmHg 92%
02:00 +18°C° 0 mm 2 mps 751 mmHg 93%
03:00 +18°C° 0 mm 2 mps 751 mmHg 94%
04:00 +18°C° 0 mm 3 mps 751 mmHg 94%
05:00 +18°C° 0 mm 3 mps 750 mmHg 95%
06:00 +19°C° 0 mm 3 mps 750 mmHg 90%
07:00 +21°C° 0 mm 4 mps 750 mmHg 85%
08:00 +22°C° 0 mm 4 mps 750 mmHg 80%
09:00 +25°C° 0 mm 4 mps 750 mmHg 72%
10:00 +26°C° 0 mm 4 mps 750 mmHg 65%
11:00 +28°C° 0 mm 4 mps 750 mmHg 57%
12:00 +27°C° 0 mm 4 mps 749 mmHg 59%
13:00 +27°C° 0 mm 3 mps 749 mmHg 61%
14:00 +27°C° 0 mm 3 mps 749 mmHg 63%
15:00 +28°C° 0 mm 3 mps 749 mmHg 61%
16:00 +28°C° 0 mm 2 mps 748 mmHg 59%
17:00 +28°C° 0 mm 2 mps 748 mmHg 58%
18:00 +27°C° 0 mm 2 mps 748 mmHg 64%
19:00 +26°C° 0 mm 3 mps 748 mmHg 71%
20:00 +25°C° 0 mm 3 mps 747 mmHg 78%
21:00 +24°C° 0 mm 3 mps 747 mmHg 82%
22:00 +21°C° 0 mm 3 mps 747 mmHg 87%
23:00 +20°C° 0 mm 3 mps 747 mmHg 91%

21 Junio, Lunes

Tiempo Temperatura Precipitaciones Viento Presión Humedad
00:00 +20°C° 0 mm 3 mps 747 mmHg 92%
01:00 +19°C° 0 mm 3 mps 747 mmHg 94%
02:00 +19°C° 0 mm 3 mps 747 mmHg 95%
03:00 +19°C° 0 mm 3 mps 747 mmHg 95%
04:00 +19°C° 0 mm 3 mps 747 mmHg 95%
05:00 +18°C° 0 mm 3 mps 747 mmHg 96%
06:00 +20°C° 0 mm 3 mps 747 mmHg 89%
07:00 +21°C° 0 mm 4 mps 747 mmHg 82%
08:00 +23°C° 0 mm 5 mps 747 mmHg 75%
09:00 +25°C° 0 mm 5 mps 747 mmHg 69%
10:00 +26°C° 0 mm 5 mps 746 mmHg 62%
11:00 +28°C° 0 mm 5 mps 746 mmHg 56%
12:00 +28°C° 0 mm 5 mps 746 mmHg 54%
13:00 +29°C° 0 mm 4 mps 746 mmHg 52%
14:00 +29°C° 0 mm 4 mps 746 mmHg 49%
15:00 +29°C° 0 mm 4 mps 745 mmHg 51%
16:00 +29°C° 0 mm 4 mps 745 mmHg 53%
17:00 +29°C° 0 mm 3 mps 745 mmHg 55%
18:00 +27°C° 0 mm 3 mps 745 mmHg 62%
19:00 +26°C° 0 mm 3 mps 745 mmHg 70%
20:00 +25°C° 0 mm 3 mps 745 mmHg 77%
21:00 +24°C° 0 mm 3 mps 745 mmHg 80%
22:00 +21°C° 0 mm 2 mps 745 mmHg 84%
23:00 +20°C° 0 mm 2 mps 745 mmHg 87%

22 Junio, Martes

Tiempo Temperatura Precipitaciones Viento Presión Humedad
00:00 +20°C° 0 mm 2 mps 745 mmHg 89%
01:00 +20°C° 0 mm 2 mps 745 mmHg 90%
02:00 +19°C° 0 mm 2 mps 745 mmHg 92%
03:00 +19°C° 0 mm 2 mps 745 mmHg 92%
04:00 +19°C° 0 mm 2 mps 745 mmHg 92%
05:00 +19°C° 0 mm 2 mps 745 mmHg 93%
06:00 +21°C° 0 mm 3 mps 745 mmHg 86%
07:00 +24°C° 0 mm 3 mps 745 mmHg 80%
08:00 +25°C° 0 mm 3 mps 745 mmHg 74%
09:00 +27°C° 0 mm 3 mps 745 mmHg 69%
10:00 +28°C° 0 mm 4 mps 745 mmHg 64%
11:00 +29°C° 0 mm 4 mps 745 mmHg 59%
12:00 +30°C° 0 mm 4 mps 745 mmHg 56%
13:00 +30°C° 0 mm 3 mps 745 mmHg 53%
14:00 +31°C° 0 mm 3 mps 745 mmHg 50%
15:00 +30°C° 0 mm 3 mps 745 mmHg 54%
16:00 +29°C° 0 mm 3 mps 745 mmHg 59%
17:00 +29°C° 0 mm 2 mps 745 mmHg 63%
18:00 +28°C° 0.2 mm 2 mps 745 mmHg 67%
19:00 +27°C° 0.2 mm 2 mps 745 mmHg 72%
20:00 +26°C° 0.2 mm 2 mps 746 mmHg 76%
21:00 +25°C° 0.4 mm 2 mps 746 mmHg 79%
22:00 +24°C° 0.4 mm 1 mps 746 mmHg 83%
23:00 +23°C° 0.4 mm 1 mps 746 mmHg 87%

23 Junio, Miércoles

Tiempo Temperatura Precipitaciones Viento Presión Humedad
00:00 +23°C° 0 mm 1 mps 746 mmHg 88%
01:00 +22°C° 0 mm 1 mps 745 mmHg 89%
02:00 +21°C° 0 mm 2 mps 745 mmHg 90%
03:00 +21°C° 0 mm 2 mps 745 mmHg 91%
04:00 +21°C° 0 mm 2 mps 745 mmHg 91%
05:00 +21°C° 0 mm 2 mps 745 mmHg 92%
06:00 +22°C° 0 mm 3 mps 745 mmHg 87%
07:00 +24°C° 0 mm 3 mps 745 mmHg 82%
08:00 +26°C° 0 mm 4 mps 745 mmHg 77%
09:00 +27°C° 0 mm 4 mps 745 mmHg 71%
10:00 +29°C° 0 mm 5 mps 745 mmHg 65%
11:00 +30°C° 0 mm 5 mps 745 mmHg 58%
12:00 +32°C° 0 mm 5 mps 745 mmHg 55%
13:00 +33°C° 0 mm 5 mps 745 mmHg 53%
14:00 +33°C° 0 mm 5 mps 745 mmHg 50%
15:00 +33°C° 0 mm 5 mps 745 mmHg 52%
16:00 +33°C° 0 mm 4 mps 744 mmHg 54%
17:00 +33°C° 0 mm 4 mps 744 mmHg 56%
18:00 +28°C° 4.3 mm 5 mps 745 mmHg 69%
19:00 +23°C° 4.3 mm 6 mps 746 mmHg 81%
20:00 +20°C° 4.3 mm 7 mps 746 mmHg 94%
21:00 +18°C° 0.6 mm 7 mps 747 mmHg 93%
22:00 +17°C° 0.6 mm 7 mps 747 mmHg 92%
23:00 +16°C° 0.6 mm 6 mps 747 mmHg 90%
Mostrar más

Necesitamos Su Consentimiento

Meteoprog y nuestros Proveedores de Servicios pueden almacenar y acceder a sus datos personales como cookies, identificadores de dispositivo u otras tecnologías similares de su dispositivo y procesar dichos datos para personalizar contenido y anuncios, además de ofrecer funciones de redes sociales y analizar el tráfico.

  • Almacenar y/o acceder a información en su dispositivo

    Se puede almacenar o acceder a cookies, identificadores de dispositivo u otra información de su dispositivo para los fines anteriormente indicados.

  • Anuncios y contenido personalizados, medición de anuncios y contenido, percepciones del público, y desarrollo de productos

    Los anuncios y el contenido pueden personalizarse en base a su perfil. Se pueden añadir más datos para personalizar mejor los anuncios y contenidos. Se puede medir el rendimiento de los anuncios y contenidos. Se puede obtener la percepción sobre el público que ha visto los anuncios y contenidos. Dichos datos pueden usarse para desarrollar o mejorar la experiencia del usuario, sistemas y software.

Al hacer clic en ‘Estoy De Acuerdo’ usted permitirá el uso de las cookies, identificadores de dispositivo, balizas web u otras tecnologías similares indicadas. Su configuración puede cambiarse desde el navegador de su dispositivo.

Para ciertos fines, los intereses legítimos pueden ser considerados por encima del consentimiento. Puede leer más sobre ello en nuestra Política de Privacidad y Cookies.